Dewpoint
44 41 37 35 31 27 22 24 26 26 25 26 26 26 27 25 26 26 27 26 26 25
41 37 35 32 27 23 22 16 25 25 24 24 24 24 24 24 23 25 25 25 24 24
38 35 32 28 25 25 25 23 22 22 22 23 23 22 23 24 22 23 24 22 24 23
35 32 29 24 24 23 23 21 19 20 20 20 20 21 22 23 19 22 23 23 23 22
34 29 25 23 23 24 21 20 18 19 19 19 19 20 21 21 22 22 22 23 22 21
30 26 24 23 22 21 19 18 19 19 20 19 21 19 20 19 20 21 22 22 22 21
27 24 23 23 21 20 18 17 18 19 20 21 20 19 18 18 20 21 20 21 21 20
26 23 21 22 20 18 19 17 18 18 19 19 19 14 19 18 19 19 18 19 18 17
25 22 21 22 20 19 19 18 18 18 18 18 17 21 20 20 18 18 18 17 17 17
23 21 20 21 18 16 17 18 18 18 18 18 18 21 20 20 17 18 18 16 16 16
22 20 18 19 17 16 17 17 16 17 18 17 17 20 19 19 17 16 15 15 16 16
21 19 17 18 17 15 15 15 15 15 15 15 16 20 18 17 15 12 13 15 15 16
21 19 17 17 17 15 15 13 12 12 13 15 16 20 18 17 14 13 14 15 15 16
21 20 18 18 17 15 13 12 13 14 15 15 17 18 18 17 15 15 16 16 16 16
Wind_Speed
7 5 4 4 3 4 3 4 5 6 7 8 9 9 9 7 9 10 10 11 11 12
6 4 5 3 2 3 2 2 4 5 6 6 7 8 9 7 8 10 10 10 10 12
8 6 5 3 3 3 3 2 3 4 5 6 7 8 8 8 8 9 10 10 12 12
8 6 5 4 4 3 1 1 3 4 5 6 7 8 8 8 8 10 11 11 12 13
9 7 6 5 4 3 1 1 3 4 5 6 7 7 7 8 9 10 12 12 13 14
9 8 7 6 4 3 2 2 3 4 5 6 6 7 7 8 10 11 12 13 14 15
10 9 8 6 5 4 2 3 3 4 5 6 7 7 6 10 11 12 13 13 13 14
10 9 7 6 5 4 4 4 4 5 6 6 7 5 5 10 12 13 14 14 14 14
11 10 9 8 6 6 6 6 6 7 7 7 8 9 4 7 13 14 15 15 15 16
12 11 10 9 8 7 7 6 7 8 7 8 6 8 3 5 13 14 15 15 15 16
13 12 10 10 9 8 7 8 8 7 7 8 7 10 3 5 14 14 14 14 15 16
14 13 11 11 10 9 8 8 8 7 8 9 6 9 5 5 13 13 14 14 15 16
14 13 13 11 10 8 8 8 7 8 8 7 9 11 7 3 11 13 14 15 17 14
15 14 12 11 9 9 9 8 9 9 9 9 8 5 9 3 9 11 13 15 16 16
Wind_Direction
143 138 121 65 58 58 56 47 33 15 7 4 3 3 1 358 351 359 353 349 343 335
137 134 105 105 97 89 59 90 33 8 355 354 355 357 350 2 351 349 345 340 341 332
142 142 135 136 108 99 107 41 8 352 343 343 346 350 345 349 350 340 334 330 332 329
152 151 160 161 153 141 135 12 347 337 329 337 338 343 340 341 330 331 327 326 324 322
160 166 173 174 167 170 205 296 331 325 323 329 333 332 332 328 329 324 322 322 320 321
177 181 188 180 182 191 242 273 303 310 313 318 322 317 321 320 323 319 317 315 318 316
187 187 189 189 196 205 244 274 285 295 295 298 300 305 320 329 324 316 314 313 310 307
191 190 186 194 203 219 253 272 275 274 277 284 288 308 344 328 318 315 312 306 303 305
187 192 197 205 214 228 244 247 259 267 273 280 281 116 83 327 313 308 305 306 309 308
191 198 203 211 218 232 242 253 259 266 268 275 281 140 127 320 304 304 301 304 310 309
195 202 207 214 224 234 243 247 257 267 270 276 281 157 140 306 296 298 301 308 312 312
198 204 209 218 228 234 240 248 253 261 268 272 275 161 162 307 307 305 308 315 315 318
198 207 213 219 228 234 242 253 259 256 265 273 273 167 160 301 305 307 312 316 312 313
198 206 214 215 221 231 237 243 252 260 263 267 267 225 159 190 303 306 313 306 309 311